OpenBCM V2.0.3 (Linux)

Packet Radio Mailbox

IZ3LSV

[San Dona' di P. JN]

 Login: GUEST





  
I0OJJ  > AMSAT    14.05.26 02:25l 338 Lines 15969 Bytes #999 (0) @ JNOS
BID : U8_IR0EQ
Read: GUEST
Subj: 2Line Orbital Elements
Path: IZ3LSV<I0OJJ<IR0EQ
Sent: 260514/0021z @:IR0EQ.ITA.EU [Rome] $:U8_IR0EQ

>From i0ojj%ir0eq.ita.eu@i0ojj.ampr.org Thu May 14 02:22:17 2026
Received: from i0ojj.ampr.org by i0ojj.ampr.org (JNOS2.0q.1) with SMTP
	id AA17059420 ; Thu, 14 May 2026 02:22:17 +0200
Message-Id: <U8_IR0EQ@i0ojj.bbs>
>From: i0ojj@ir0eq.ita.eu
X-JNOS-User-Port: Telnet   (i0ojj @ 44.27.18.9)  ->   Sending message

>From i0ojj@rgate.ampr.org Thu May 14 02:21:20 2026
Received: from rgate.ampr.org by rgate.ampr.org (JNOS2.0q.1) with SMTP
	id AA1088 ; Thu, 14 May 2026 02:21:20 +0200
Received: by rgate.ampr.org with SMTP
	id AA1085 ; Thu, 14 May 2026 02:20:36 +0200
Message-Id: <1086@rgate.ampr.org>
>From: i0ojj@rgate.ampr.org

SB KEPS @ AMSAT  $ORB26133.1
2Line Orbital Elements 26133.AMSAT

QST de W1STR

AMSAT Orbital Elements for Amateur Satellites in TLE Format
>From Orbital Analysis Office
New England Sci-Tech STEM Education Center
Natick MA May 13, 2026
To all radio amateurs


These element sets describe the orbits of various satellites 
in use by the amateur radio community. For details see:
www.amsat.org/keplerian-elements-formats/

A daily update of element sets is available at:
www.amsat.org/tle/daily-bulletin.txt
or without bulletin text:
www.amsat.org/tle/dailytle.txt


AO-07
1 07530U 74089B   26132.87533286 -.00000029  00000-0  10796-3 0  9997
2 07530 101.9917 145.7521 0012140 196.7820 238.0696 12.53697474356096
UO-11
1 14781U 84021B   26132.84792309  .00000849  00000-0  92196-4 0  9994
2 14781  97.8037  98.8254 0006342 309.0891  50.9763 14.90697322251863
AO-27
1 22825U 93061C   26132.47840235  .00000046  00000-0  34367-4 0  9992
2 22825  98.6892 199.9017 0008025 197.5973 162.4932 14.30932168701894
FO-29
1 24278U 96046B   26132.82172513 -.00000025  00000-0  10649-4 0  9993
2 24278  98.5279 346.5311 0349707 188.0537 171.4897 13.53272310468383
GO-32
1 25397U 98043D   26132.87255970  .00000029  00000-0  32726-4 0  9992
2 25397  99.0064 124.7427 0001011  13.1949 346.9255 14.24421265446305
ISS
1 25544U 98067A   26132.84394688  .00005010  00000-0  98361-4 0  9991
2 25544  51.6312 115.0561 0007510  52.2723 307.8945 15.49198654566277
NO-44
1 26931U 01043C   26132.53798604  .00000068  00000-0  56189-4 0  9992
2 26931  67.0512 336.4774 0006284 263.6947  96.3440 14.31941857285346
SO-50
1 27607U 02058C   26132.34773994  .00000635  00000-0  92778-4 0  9998
2 27607  64.5523 239.8634 0075634 269.0204  90.2235 14.82969432259142
CO-55
1 27844U 03031E   26132.77239405  .00000191  00000-0  10155-3 0  9999
2 27844  98.6747 141.7761 0008348 291.1479  68.8807 14.24313071186638
RS-22
1 27939U 03042A   26132.84332200  .00001096  00000-0  17720-3 0  9991
2 27939  98.3476 316.2061 0011907  26.8479  97.7232 14.73405051210342
CO-65
1 32785U 08021C   26132.84521333  .00002895  00000-0  18667-3 0  9994
2 32785  97.8259 113.5431 0010036 140.5484 219.6477 15.09105840979869
CO-66
1 32791U 08021J   26132.73647330  .00011772  00000-0  38923-3 0  9996
2 32791  97.7525 128.9791 0005011  84.8915 275.2897 15.31513020981861
RS-30
1 32953U 08025A   26132.76859314 -.00000021  00000-0 -22185-3 0  9990
2 32953  82.5071  17.4718 0020334  30.8376 329.3894 12.43177866815292
SRMSAT
1 37841U 11058D   26132.72776161  .00000364  00000-0  53462-4 0  9996
2 37841  19.9726 274.1025 0011686 173.6263 214.7014 14.11567690752801
ZACUBE-1
1 39417U 13066B   26132.87677755  .00003027  00000-0  23831-3 0  9998
2 39417  97.8118  95.0221 0041873  11.9961 348.2250 15.00908497675431
Delfi-N3xt
1 39428U 13066N   26132.56761800  .00004690  00000-0  41506-3 0  9997
2 39428  97.8341  52.9219 0074208 326.5023  33.1515 14.94669576669309
GOMX-1
1 39430U 13066Q   26132.84327161  .00001167  00000-0  18195-3 0  9993
2 39430  97.6515 335.5349 0128401 190.3885 169.4665 14.69316965664728
LO-74
1 39440U 13066AA  26132.82478453  .00001748  00000-0  16626-3 0  9995
2 39440  97.8889  81.6671 0058845 143.2528 217.2748 14.93491684671717
AO-73
1 39444U 13066AE  26132.85135747  .00005186  00000-0  32740-3 0  9993
2 39444  97.8258 103.5768 0035403 326.7913  33.1093 15.09021963674339
DTUSAT-2
1 40030U 14033W   26132.69869547  .00004235  00000-0  23366-3 0  9993
2 40030  98.0867 128.1882 0007943  10.0957 350.0431 15.14543025647319
LILACSAT-2
1 40908U 15049K   26132.84842664  .00011452  00000-0  20403-3 0  9991
2 40908  97.4698 168.3720 0007642  37.9831 322.1958 15.50253223590274
Horyu-4
1 41340U 16012D   26132.86732350  .00135031  00000-0  74881-3 0  9994
2 41340  30.9892 334.3982 0005461  23.8940 336.1970 15.78006687565204
Lapan A3
1 41603U 16040E   26132.87755955  .00002336  00000-0  75797-4 0  9993
2 41603  97.1488 130.1916 0011678 134.9230 225.2963 15.32878058549407
CAS-2T
1 41847U 16066G   26132.84649852  .00000517  00000-0  82640-4 0  9990
2 41847  98.3825 208.9827 0341066 236.6839 120.1265 14.44590786499696
TechnoSat
1 42829U 17042E   26132.80781515  .00001616  00000-0  11860-3 0  9991
2 42829  97.4234 291.8269 0017044 210.9026 149.1199 15.04729636481380
AO-91
1 43017U 17073E   26132.87740102  .00005964  00000-0  26261-3 0  9990
2 43017  97.4761   0.8269 0154160  90.5575 271.3322 15.12053585460054
S-Net D
1 43186U 18014G   26132.83073779  .00003083  00000-0  16237-3 0  9990
2 43186  97.5392  37.8471 0009546 132.4833 227.7208 15.16328992453407
S-Net B
1 43187U 18014H   26132.44554844  .00002851  00000-0  15056-3 0  9995
2 43187  97.5395  37.4497 0010222 130.2698 229.9430 15.16297031453346
S-Net A
1 43188U 18014J   26132.63182090  .00003060  00000-0  16116-3 0  9998
2 43188  97.5407  37.8369 0010135 130.2010 230.0112 15.16334618453370
S-Net C
1 43189U 18014K   26132.64720905  .00002846  00000-0  15024-3 0  9991
2 43189  97.5424  37.9215 0011634 124.6766 235.5565 15.16289305451924
Ten-Koh
1 43677U 18084G   26132.50263007  .00000685  00000-0  56191-4 0  9990
2 43677  98.0767 323.3683 0008170 233.1390 126.9085 15.02776129410805
PO-101
1 43678U 18084H   26132.82319192  .00002040  00000-0  16795-3 0  9995
2 43678  98.1105 327.5164 0011981 293.3865  66.6097 15.00273601410912
QO-100
1 43700U 18090A   26132.82680315  .00000157  00000-0  00000+0 0  9991
2 43700   0.0151 269.4351 0001589 176.4940 108.1580  1.00274257 27322
MinXSS-2
1 43758U 18099A   26132.61413968  .00021842  00000-0  47122-3 0  9992
2 43758  97.4548 207.9228 0007501  45.1490 315.0367 15.44547965408638
AO-95
1 43770U 18099N   26132.60956847  .00006857  00000-0  26976-3 0  9996
2 43770  97.4410 193.0052 0010442 112.2597 247.9749 15.25919266407791
SNUSat 2
1 43782U 18099AA  26132.09686235  .00005401  00000-0  24431-3 0  9991
2 43782  97.4090 186.0460 0011727  68.0647 292.1834 15.21272005407543
SnugLite
1 43784U 18099AC  26132.62071968  .00007368  00000-0  28599-3 0  9996
2 43784  97.3901 187.2682 0004210  73.5700 286.6001 15.26381155407898
ITASat 1
1 43786U 18099AE  26132.84008111  .00004385  00000-0  21479-3 0  9998
2 43786  97.4059 185.0649 0014350 114.2839 245.9896 15.18584788407546
EAGLET 1
1 43790U 18099AJ  26132.86372633  .00002468  00000-0  14451-3 0  9990
2 43790  97.4262 183.4704 0012872 106.5888 253.6758 15.12660067406996
ESEO
1 43792U 18099AL  26132.85664436  .00001670  00000-0  12442-3 0  9998
2 43792  97.3997 171.7548 0013364  94.1818 266.0936 15.04132497406493
JO-97
1 43803U 18099AX  26132.13071089  .00010652  00000-0  34172-3 0  9992
2 43803  97.4155 194.8693 0006475  53.2825 306.9011 15.32491171408105
Suomi 100
1 43804U 18099AY  26132.12213074  .00007378  00000-0  27594-3 0  9995
2 43804  97.4213 192.6691 0011087  55.6236 304.6050 15.27569361407919
ISAT
1 43879U 18111D   26132.80288397  .00049483  00000-0  62175-3 0  9994
2 43879  97.5896  65.4749 0008255  83.2112 277.0082 15.59513333405642
UWE-4
1 43880U 18111E   26132.78645854  .00020694  00000-0  45571-3 0  9992
2 43880  97.5855  59.6106 0010677  92.8660 267.3810 15.43921940405311
Sparrow
1 43881U 18111F   26132.81207824  .00070946  00000-0  69746-3 0  9993
2 43881  97.6126  70.5623 0007698 107.6561 252.5539 15.65762788405821
Prox-1
1 44339U 19036A   26132.76809538  .00008474  00000-0  83372-3 0  9991
2 44339  23.9966 350.6830 0006508 344.4197  15.6102 14.89758912368181
Taurus 1
1 44530U 19059C   26132.82512090  .00005309  00000-0  85938-3 0  9994
2 44530  98.6391 295.4769 0009463  68.8995 291.3221 14.71707839353449
TO-108
1 44881U 19093C   26132.83945314  .00000918  00000-0  10984-3 0  9991
2 44881  97.7537 205.9326 0012924 197.1661 162.9119 14.86461746346167
RS-44
1 44909U 19096E   26132.35437443  .00000005  00000-0 -21562-4 0  9994
2 44909  82.5241   3.5197 0216637 227.9977 130.2500 12.79748064297763
SALSAT
1 46495U 20068K   26132.49064809  .00005145  00000-0  18390-3 0  9997
2 46495  97.8859 133.3988 0011544  72.3805 287.8693 15.29261249309906
CSS (TIANHE-1)
1 48274U 21035A   26132.51920400  .00012182  00000-0  13837-3 0  9990
2 48274  41.4671 178.9319 0004229 292.2546  67.7845 15.62150141287599
CUTE
1 49263U 21088D   26132.77986990  .00133390  00000-0  76236-3 0  9998
2 49263  97.4190 229.0724 0001596 275.6751  84.4333 15.78491621256941
TeikyoSat 4
1 49396U 21102B   26132.32313559  .00001019  00000-0  67519-4 0  9995
2 49396  97.3699 163.1995 0013541  60.9839 299.2745 15.09376462247317
Z-Sat
1 49399U 21102E   26132.86861856  .00000608  00000-0  33054-4 0  9995
2 49399  97.3362 169.2661 0017090  17.1090 343.0717 15.17985294248080
KOSEN 1
1 49402U 21102H   26132.35205808  .00004450  00000-0  17377-3 0  9991
2 49402  97.3221 175.2138 0012843 341.4949  18.5820 15.26331816248558
HO-113
1 50466U 21131B   26132.85862650  .00000271  00000-0  97272-4 0  9994
2 50466  98.4954 225.4431 0003804 186.9938 173.1198 14.41322463230029
SNUGLITE 2
1 52899U 22065F   26132.63497799  .00000603  00000-0  12346-3 0  9994
2 52899  98.2154 277.5396 0008531 130.0913 230.1038 14.64278546205794
